| time (UTC) | temp C | wind direction | speed KPH | gust KPH | rain 1hr cm | rain 24hr cm | rain mn cm | humidity % | barometer mb |
| 20260505065006 | 12 | 173 | 3.2 | 8.0 | 0.00 | 0.00 | 0.00 | 64 | 1010.4 |
| 20260505064006 | 12 | 200 | 3.2 | 4.8 | 0.00 | 0.00 | 0.00 | 63 | 1010.4 |
| 20260505063504 | 12 | 209 | 1.6 | 4.8 | 0.00 | 0.00 | 0.00 | 63 | 1010.3 |
| 20260505063006 | 13 | 156 | 0.0 | 3.2 | 0.00 | 0.00 | 0.00 | 63 | 1010.3 |
| 20260505062504 | 13 | 173 | 0.0 | 1.6 | 0.00 | 0.00 | 0.00 | 62 | 1010.4 |
| 20260505062005 | 13 | 189 | 1.6 | 4.8 | 0.00 | 0.00 | 0.00 | 62 | 1010.4 |
| 20260505061504 | 13 | 220 | 8.0 | 19.3 | 0.00 | 0.00 | 0.00 | 62 | 1010.4 |
| 20260505061006 | 13 | 220 | 11.3 | 19.3 | 0.00 | 0.00 | 0.00 | 62 | 1010.4 |
| 20260505060504 | 13 | 213 | 12.9 | 20.9 | 0.00 | 0.00 | 0.00 | 62 | 1010.4 |
| 20260505060004 | 13 | 211 | 9.7 | 19.3 | 0.00 | 0.00 | 0.00 | 62 | 1010.4 |
| 20260505055504 | 13 | 215 | 12.9 | 22.5 | 0.00 | 0.00 | 0.00 | 62 | 1010.3 |
| 20260505055006 | 13 | 206 | 14.5 | 20.9 | 0.00 | 0.00 | 0.00 | 62 | 1010.3 |
| 20260505054504 | 13 | 213 | 11.3 | 22.5 | 0.00 | 0.00 | 0.00 | 62 | 1010.4 |
| 20260505054006 | 13 | 205 | 16.1 | 24.1 | 0.00 | 0.00 | 0.00 | 62 | 1010.3 |
| 20260505053504 | 13 | 218 | 11.3 | 24.1 | 0.00 | 0.00 | 0.00 | 61 | 1010.4 |
| 20260505053006 | 13 | 215 | 14.5 | 22.5 | 0.00 | 0.00 | 0.00 | 61 | 1010.3 |
| 20260505051504 | 13 | 220 | 16.1 | 25.7 | 0.00 | 0.00 | 0.00 | 61 | 1010.3 |
| 20260505051006 | 13 | 218 | 17.7 | 27.4 | 0.00 | 0.00 | 0.00 | 61 | 1010.3 |
| 20260505050504 | 13 | 217 | 16.1 | 24.1 | 0.00 | 0.00 | 0.00 | 61 | 1010.4 |
| 20260505041504 | 14 | 213 | 11.3 | 16.1 | 0.00 | 0.00 | 0.00 | 59 | 1010.5 |
| 20260505041005 | 14 | 220 | 11.3 | 16.1 | 0.00 | 0.00 | 0.00 | 59 | 1010.5 |
| 20260505040504 | 14 | 212 | 11.3 | 19.3 | 0.00 | 0.00 | 0.00 | 58 | 1010.5 |
| 20260505040004 | 14 | 214 | 9.7 | 20.9 | 0.00 | 0.00 | 0.00 | 58 | 1010.4 |
| 20260505035504 | 14 | 215 | 14.5 | 20.9 | 0.00 | 0.00 | 0.00 | 58 | 1010.4 |
| 20260505035006 | 14 | 207 | 11.3 | 19.3 | 0.00 | 0.00 | 0.00 | 58 | 1010.3 |
| 20260505034504 | 15 | 208 | 8.0 | 12.9 | 0.00 | 0.00 | 0.00 | 58 | 1010.3 |
| 20260505034006 | 15 | 213 | 8.0 | 22.5 | 0.00 | 0.00 | 0.00 | 57 | 1010.4 |
| 20260505033504 | 15 | 211 | 9.7 | 27.4 | 0.00 | 0.00 | 0.00 | 57 | 1010.3 |
| 20260505033006 | 15 | 199 | 14.5 | 24.1 | 0.00 | 0.00 | 0.00 | 57 | 1010.2 |
| 20260505032504 | 15 | 219 | 12.9 | 19.3 | 0.00 | 0.00 | 0.00 | 57 | 1010.2 |
| 20260505032006 | 15 | 217 | 14.5 | 22.5 | 0.00 | 0.00 | 0.00 | 56 | 1010.3 |
| 20260505031505 | 15 | 210 | 16.1 | 29.0 | 0.00 | 0.00 | 0.00 | 56 | 1010.4 |
| 20260505031006 | 15 | 200 | 16.1 | 20.9 | 0.00 | 0.00 | 0.00 | 56 | 1010.3 |
| 20260505030004 | 15 | 212 | 14.5 | 22.5 | 0.00 | 0.00 | 0.00 | 55 | 1010.4 |
| 20260505025504 | 15 | 214 | 17.7 | 25.7 | 0.00 | 0.00 | 0.00 | 55 | 1010.3 |
| 20260505025006 | 15 | 203 | 12.9 | 22.5 | 0.00 | 0.00 | 0.00 | 54 | 1010.3 |
| 20260505024504 | 15 | 213 | 16.1 | 29.0 | 0.00 | 0.00 | 0.00 | 54 | 1010.3 |
| 20260505023504 | 15 | 221 | 17.7 | 32.2 | 0.00 | 0.00 | 0.00 | 53 | 1010.3 |
| 20260505023006 | 15 | 221 | 17.7 | 32.2 | 0.00 | 0.00 | 0.00 | 53 | 1010.3 |
| 20260505022504 | 15 | 212 | 17.7 | 32.2 | 0.00 | 0.00 | 0.00 | 52 | 1010.2 |
| 20260505022006 | 16 | 212 | 19.3 | 27.4 | 0.00 | 0.00 | 0.00 | 52 | 1010.3 |
| 20260505021504 | 16 | 212 | 14.5 | 29.0 | 0.00 | 0.00 | 0.00 | 51 | 1010.3 |
| 20260505020504 | 16 | 213 | 12.9 | 22.5 | 0.00 | 0.00 | 0.00 | 51 | 1010.3 |
| 20260505020004 | 16 | 208 | 14.5 | 25.7 | 0.00 | 0.00 | 0.00 | 51 | 1010.3 |
| 20260505015504 | 16 | 210 | 12.9 | 27.4 | 0.00 | 0.00 | 0.00 | 51 | 1010.3 |
| 20260505015006 | 16 | 224 | 14.5 | 24.1 | 0.00 | 0.00 | 0.00 | 50 | 1010.3 |
| 20260505014504 | 16 | 215 | 14.5 | 24.1 | 0.00 | 0.00 | 0.00 | 50 | 1010.2 |
| 20260505014007 | 16 | 218 | 16.1 | 25.7 | 0.00 | 0.00 | 0.00 | 50 | 1010.2 |
| 20260505013503 | 16 | 211 | 14.5 | 24.1 | 0.00 | 0.00 | 0.00 | 50 | 1010.1 |
| 20260505013006 | 16 | 203 | 19.3 | 27.4 | 0.00 | 0.00 | 0.00 | 50 | 1010.0 |
| 20260505012005 | 16 | 219 | 19.3 | 32.2 | 0.00 | 0.00 | 0.00 | 49 | 1009.7 |
| 20260505011504 | 16 | 213 | 16.1 | 25.7 | 0.00 | 0.00 | 0.00 | 49 | 1009.7 |
| 20260505011006 | 16 | 216 | 22.5 | 33.8 | 0.00 | 0.00 | 0.00 | 49 | 1009.5 |
| 20260505010504 | 16 | 218 | 20.9 | 29.0 | 0.00 | 0.00 | 0.00 | 49 | 1009.4 |
| 20260505010004 | 16 | 218 | 22.5 | 38.6 | 0.00 | 0.00 | 0.00 | 48 | 1009.4 |
| 20260505005504 | 17 | 216 | 25.7 | 33.8 | 0.00 | 0.00 | 0.00 | 48 | 1009.3 |
| 20260505005006 | 16 | 196 | 20.9 | 29.0 | 0.00 | 0.00 | 0.00 | 49 | 1009.3 |
| 20260505004504 | 16 | 211 | 16.1 | 27.4 | 0.00 | 0.00 | 0.00 | 49 | 1009.2 |
| 20260505004006 | 16 | 213 | 16.1 | 24.1 | 0.00 | 0.00 | 0.00 | 49 | 1009.2 |
| 20260505003504 | 16 | 206 | 17.7 | 29.0 | 0.00 | 0.00 | 0.00 | 49 | 1009.0 |
| 20260505003005 | 17 | 217 | 16.1 | 25.7 | 0.00 | 0.00 | 0.00 | 49 | 1008.8 |
| 20260505002504 | 17 | 206 | 16.1 | 27.4 | 0.00 | 0.00 | 0.00 | 49 | 1008.7 |
| 20260505002006 | 17 | 211 | 16.1 | 27.4 | 0.00 | 0.00 | 0.00 | 48 | 1008.6 |
| 20260505001504 | 17 | 203 | 16.1 | 27.4 | 0.00 | 0.00 | 0.00 | 47 | 1008.4 |
| 20260505001006 | 18 | 209 | 17.7 | 38.6 | 0.00 | 0.00 | 0.00 | 45 | 1008.3 |
| 20260505000504 | 18 | 205 | 19.3 | 37.0 | 0.00 | 0.00 | 0.00 | 44 | 1008.2 |
| 20260505000004 | 18 | 208 | 16.1 | 29.0 | 0.00 | 0.00 | 0.00 | 44 | 1008.1 |
| 20260504235504 | 18 | 189 | 19.3 | 33.8 | 0.00 | 0.00 | 0.00 | 44 | 1008.0 |
| 20260504235006 | 18 | 200 | 20.9 | 45.1 | 0.00 | 0.00 | 0.00 | 44 | 1007.9 |
| 20260504234504 | 18 | 211 | 19.3 | 35.4 | 0.00 | 0.00 | 0.00 | 43 | 1007.9 |
| 20260504234006 | 18 | 221 | 22.5 | 38.6 | 0.00 | 0.00 | 0.00 | 43 | 1007.8 |
| 20260504233504 | 19 | 216 | 27.4 | 41.8 | 0.00 | 0.00 | 0.00 | 42 | 1007.8 |
| 20260504233006 | 19 | 169 | 27.4 | 46.7 | 0.00 | 0.00 | 0.00 | 42 | 1007.7 |
| 20260504231504 | 20 | 207 | 16.1 | 32.2 | 0.00 | 0.00 | 0.00 | 41 | 1007.3 |
| 20260504231006 | 20 | 209 | 19.3 | 33.8 | 0.00 | 0.00 | 0.00 | 40 | 1007.1 |
| 20260504230505 | 20 | 210 | 19.3 | 32.2 | 0.00 | 0.00 | 0.00 | 40 | 1007.0 |
| 20260504225504 | 20 | 209 | 27.4 | 41.8 | 0.00 | 0.00 | 0.00 | 38 | 1006.8 |
| 20260504225006 | 20 | 219 | 25.7 | 37.0 | 0.00 | 0.00 | 0.00 | 37 | 1006.7 |
| 20260504224505 | 20 | 216 | 25.7 | 33.8 | 0.00 | 0.00 | 0.00 | 36 | 1006.6 |
| 20260504223504 | 21 | 214 | 27.4 | 45.1 | 0.00 | 0.00 | 0.00 | 35 | 1006.4 |
| 20260504223005 | 21 | 229 | 22.5 | 32.2 | 0.00 | 0.00 | 0.00 | 34 | 1006.4 |
| 20260504222504 | 22 | 222 | 14.5 | 33.8 | 0.00 | 0.00 | 0.00 | 31 | 1006.3 |
| 20260504222006 | 22 | 198 | 17.7 | 35.4 | 0.00 | 0.00 | 0.00 | 31 | 1006.3 |
| 20260504221504 | 22 | 219 | 29.0 | 41.8 | 0.00 | 0.00 | 0.00 | 31 | 1006.3 |
| 20260504220004 | 22 | 222 | 22.5 | 32.2 | 0.00 | 0.00 | 0.00 | 30 | 1006.4 |
| 20260504215504 | 22 | 226 | 20.9 | 32.2 | 0.00 | 0.00 | 0.00 | 30 | 1006.4 |
| 20260504215007 | 22 | 219 | 24.1 | 37.0 | 0.00 | 0.00 | 0.00 | 30 | 1006.4 |
| 20260504214504 | 22 | 227 | 19.3 | 32.2 | 0.00 | 0.00 | 0.00 | 30 | 1006.3 |
| 20260504214006 | 22 | 243 | 20.9 | 27.4 | 0.00 | 0.00 | 0.00 | 30 | 1006.4 |
| 20260504213504 | 22 | 224 | 22.5 | 41.8 | 0.00 | 0.00 | 0.00 | 30 | 1006.4 |
| 20260504213006 | 22 | 209 | 27.4 | 38.6 | 0.00 | 0.00 | 0.00 | 30 | 1006.3 |
| 20260504212504 | 22 | 214 | 29.0 | 41.8 | 0.00 | 0.00 | 0.00 | 30 | 1006.3 |
| 20260504211504 | 22 | 219 | 22.5 | 33.8 | 0.00 | 0.00 | 0.00 | 30 | 1006.4 |
| 20260504210504 | 22 | 240 | 27.4 | 38.6 | 0.00 | 0.00 | 0.00 | 29 | 1006.4 |
| 20260504205504 | 22 | 222 | 20.9 | 45.1 | 0.00 | 0.00 | 0.00 | 29 | 1006.4 |
| 20260504205006 | 22 | 225 | 25.7 | 45.1 | 0.00 | 0.00 | 0.00 | 29 | 1006.4 |
| 20260504204504 | 22 | 178 | 22.5 | 33.8 | 0.00 | 0.00 | 0.00 | 29 | 1006.4 |
| 20260504204007 | 22 | 238 | 22.5 | 48.3 | 0.00 | 0.00 | 0.00 | 29 | 1006.5 |
| 20260504203006 | 22 | 236 | 25.7 | 41.8 | 0.00 | 0.00 | 0.00 | 28 | 1006.3 |
| 20260504202504 | 23 | 210 | 24.1 | 33.8 | 0.00 | 0.00 | 0.00 | 27 | 1006.4 |
| 20260504202006 | 22 | 225 | 25.7 | 40.2 | 0.00 | 0.00 | 0.00 | 27 | 1006.6 |
| 20260504201504 | 22 | 184 | 25.7 | 40.2 | 0.00 | 0.00 | 0.00 | 27 | 1006.6 |
| 20260504201006 | 22 | 136 | 30.6 | 48.3 | 0.00 | 0.00 | 0.00 | 27 | 1006.6 |
| 20260504200504 | 22 | 214 | 29.0 | 48.3 | 0.00 | 0.00 | 0.00 | 28 | 1006.6 |
| 20260504200004 | 22 | 227 | 32.2 | 46.7 | 0.00 | 0.00 | 0.00 | 27 | 1006.6 |
| 20260504195504 | 22 | 217 | 22.5 | 41.8 | 0.00 | 0.00 | 0.00 | 28 | 1006.5 |
| 20260504194504 | 22 | 226 | 27.4 | 40.2 | 0.00 | 0.00 | 0.00 | 27 | 1006.7 |
| 20260504193006 | 22 | 215 | 27.4 | 40.2 | 0.00 | 0.00 | 0.00 | 28 | 1006.8 |
| 20260504192006 | 22 | 223 | 29.0 | 40.2 | 0.00 | 0.00 | 0.00 | 27 | 1006.7 |
| 20260504191504 | 22 | 237 | 29.0 | 53.1 | 0.00 | 0.00 | 0.00 | 27 | 1006.8 |
| 20260504191006 | 22 | 244 | 22.5 | 37.0 | 0.00 | 0.00 | 0.00 | 27 | 1006.7 |
| 20260504190504 | 22 | 235 | 25.7 | 46.7 | 0.00 | 0.00 | 0.00 | 27 | 1006.9 |
| 20260504185504 | 22 | 275 | 27.4 | 49.9 | 0.00 | 0.00 | 0.00 | 28 | 1006.9 |
| 20260504185005 | 22 | 250 | 22.5 | 38.6 | 0.00 | 0.00 | 0.00 | 28 | 1006.9 |
| 20260504184504 | 22 | 218 | 29.0 | 51.5 | 0.00 | 0.00 | 0.00 | 28 | 1006.9 |
| 20260504184007 | 22 | 213 | 38.6 | 56.3 | 0.00 | 0.00 | 0.00 | 27 | 1006.9 |
| 20260504183504 | 22 | 220 | 32.2 | 45.1 | 0.00 | 0.00 | 0.00 | 27 | 1007.1 |
| 20260504183007 | 22 | 134 | 20.9 | 32.2 | 0.00 | 0.00 | 0.00 | 29 | 1007.0 |
| 20260504182504 | 22 | 231 | 27.4 | 35.4 | 0.00 | 0.00 | 0.00 | 28 | 1007.1 |
| 20260504182006 | 21 | 225 | 30.6 | 41.8 | 0.00 | 0.00 | 0.00 | 28 | 1007.2 |
| 20260504181504 | 21 | 242 | 22.5 | 41.8 | 0.00 | 0.00 | 0.00 | 28 | 1007.1 |
| 20260504181006 | 21 | 309 | 32.2 | 48.3 | 0.00 | 0.00 | 0.00 | 28 | 1007.4 |
| 20260504180503 | 21 | 215 | 32.2 | 48.3 | 0.00 | 0.00 | 0.00 | 28 | 1007.3 |
| 20260504180004 | 21 | 297 | 29.0 | 48.3 | 0.00 | 0.00 | 0.00 | 28 | 1007.3 |
| 20260504175504 | 21 | 264 | 29.0 | 41.8 | 0.00 | 0.00 | 0.00 | 29 | 1007.4 |
| 20260504175006 | 21 | 224 | 29.0 | 62.8 | 0.00 | 0.00 | 0.00 | 29 | 1007.5 |
| 20260504174504 | 21 | 219 | 24.1 | 49.9 | 0.00 | 0.00 | 0.00 | 29 | 1007.4 |
| 20260504174006 | 21 | 228 | 29.0 | 41.8 | 0.00 | 0.00 | 0.00 | 30 | 1007.5 |
| 20260504173504 | 21 | 218 | 25.7 | 41.8 | 0.00 | 0.00 | 0.00 | 30 | 1007.5 |
| 20260504173005 | 20 | 222 | 27.4 | 46.7 | 0.00 | 0.00 | 0.00 | 30 | 1007.4 |
| 20260504172504 | 21 | 221 | 29.0 | 41.8 | 0.00 | 0.00 | 0.00 | 30 | 1007.6 |
| 20260504172006 | 21 | 224 | 30.6 | 41.8 | 0.00 | 0.00 | 0.00 | 30 | 1007.6 |
| 20260504171504 | 21 | 242 | 25.7 | 46.7 | 0.00 | 0.00 | 0.00 | 30 | 1007.4 |
| 20260504171005 | 21 | 218 | 33.8 | 45.1 | 0.00 | 0.00 | 0.00 | 30 | 1007.3 |
| 20260504170504 | 21 | 236 | 20.9 | 46.7 | 0.00 | 0.00 | 0.00 | 31 | 1007.5 |
| 20260504151006 | 19 | 237 | 22.5 | 45.1 | 0.00 | 0.00 | 0.00 | 34 | 1008.9 |
| 20260504150504 | 19 | 233 | 25.7 | 41.8 | 0.00 | 0.00 | 0.00 | 34 | 1009.0 |
| 20260504140504 | 17 | 228 | 22.5 | 35.4 | 0.00 | 0.00 | 0.00 | 39 | 1009.5 |
| 20260504130503 | 15 | 236 | 24.1 | 38.6 | 0.00 | 0.00 | 0.00 | 43 | 1010.1 |
| 20260504110504 | 10 | 221 | 8.0 | 14.5 | 0.00 | 0.00 | 0.00 | 52 | 1010.8 |
| 20260504100504 | 9 | 212 | 4.8 | 9.7 | 0.00 | 0.00 | 0.00 | 54 | 1010.8 |
| 20260504082006 | 8 | 236 | 4.8 | 11.3 | 0.00 | 0.00 | 0.00 | 54 | 1010.4 |
| 20260504081504 | 8 | 236 | 8.0 | 11.3 | 0.00 | 0.00 | 0.00 | 54 | 1010.5 |
| 20260504081006 | 8 | 222 | 4.8 | 9.7 | 0.00 | 0.00 | 0.00 | 54 | 1010.5 |
| 20260504080504 | 8 | 230 | 6.4 | 12.9 | 0.00 | 0.00 | 0.00 | 54 | 1010.5 |